When you browse on this site, cookies collect data to enhance your experience and personalize the content and advertising you see.
Visit our Privacy Policy to learn more. By continuing to use the site, you agree to this use of cookies and data.
  • In Denmark
  • List of Countries
  • For 7 days
  • Water Temperature
  • Weather Map
  • Weather Widgets
  • user-avatar
    Login

    Hourly Weather Guarulhos

    Today, 27 May, Wednesday

    Time Temperature Precipitation Wind Pressure Humidity
    00:00 +13°C° 0 mm 2 mps 695 mmHg 76%
    01:00 +12°C° 0 mm 2 mps 695 mmHg 77%
    02:00 +12°C° 0 mm 2 mps 695 mmHg 79%
    03:00 +12°C° 0 mm 2 mps 695 mmHg 80%
    04:00 +10°C° 0 mm 2 mps 695 mmHg 81%
    05:00 +10°C° 0 mm 2 mps 695 mmHg 82%
    06:00 +10°C° 0 mm 2 mps 695 mmHg 83%
    07:00 +12°C° 0 mm 1 mps 696 mmHg 76%
    08:00 +14°C° 0 mm 1 mps 697 mmHg 69%
    09:00 +15°C° 0 mm 1 mps 697 mmHg 62%
    10:00 +18°C° 0 mm 1 mps 698 mmHg 54%
    11:00 +20°C° 0 mm 1 mps 698 mmHg 46%
    12:00 +22°C° 0 mm 1 mps 698 mmHg 38%
    13:00 +22°C° 0 mm 1 mps 698 mmHg 38%
    14:00 +22°C° 0 mm 1 mps 698 mmHg 38%
    15:00 +23°C° 0 mm 2 mps 697 mmHg 37%
    16:00 +20°C° 0 mm 2 mps 697 mmHg 51%
    17:00 +17°C° 0 mm 2 mps 697 mmHg 65%
    18:00 +15°C° 0 mm 2 mps 697 mmHg 78%
    19:00 +14°C° 0 mm 2 mps 697 mmHg 81%
    20:00 +14°C° 0 mm 2 mps 697 mmHg 84%
    21:00 +13°C° 0 mm 2 mps 698 mmHg 87%
    22:00 +13°C° 0 mm 2 mps 697 mmHg 87%
    23:00 +13°C° 0 mm 1 mps 697 mmHg 88%

    Tomorrow, 28 May, Thursday

    Time Temperature Precipitation Wind Pressure Humidity
    00:00 +12°C° 0 mm 1 mps 697 mmHg 88%
    01:00 +12°C° 0 mm 1 mps 697 mmHg 88%
    02:00 +12°C° 0 mm 2 mps 697 mmHg 88%
    03:00 +10°C° 0 mm 2 mps 697 mmHg 89%
    04:00 +10°C° 0 mm 2 mps 697 mmHg 89%
    05:00 +10°C° 0 mm 2 mps 697 mmHg 89%
    06:00 +10°C° 0 mm 2 mps 698 mmHg 89%
    07:00 +12°C° 0 mm 2 mps 698 mmHg 83%
    08:00 +13°C° 0 mm 2 mps 698 mmHg 78%
    09:00 +14°C° 0 mm 2 mps 699 mmHg 72%
    10:00 +16°C° 0 mm 2 mps 699 mmHg 61%
    11:00 +18°C° 0 mm 2 mps 699 mmHg 51%
    12:00 +20°C° 0 mm 2 mps 699 mmHg 40%
    13:00 +21°C° 0 mm 2 mps 699 mmHg 39%
    14:00 +22°C° 0 mm 1 mps 699 mmHg 38%
    15:00 +23°C° 0 mm 1 mps 698 mmHg 37%
    16:00 +20°C° 0 mm 2 mps 698 mmHg 47%
    17:00 +18°C° 0 mm 2 mps 698 mmHg 58%
    18:00 +16°C° 0 mm 2 mps 697 mmHg 68%
    19:00 +15°C° 0 mm 2 mps 697 mmHg 72%
    20:00 +14°C° 0 mm 2 mps 697 mmHg 75%
    21:00 +13°C° 0 mm 1 mps 697 mmHg 79%
    22:00 +13°C° 0 mm 1 mps 697 mmHg 80%
    23:00 +13°C° 0 mm 1 mps 697 mmHg 82%

    Day after tomorrow, 29 May, Friday

    Time Temperature Precipitation Wind Pressure Humidity
    00:00 +13°C° 0 mm 1 mps 697 mmHg 84%
    01:00 +12°C° 0 mm 1 mps 697 mmHg 85%
    02:00 +12°C° 0 mm 1 mps 697 mmHg 86%
    03:00 +12°C° 0 mm 1 mps 697 mmHg 87%
    04:00 +11°C° 0 mm 1 mps 697 mmHg 86%
    05:00 +11°C° 0 mm 1 mps 697 mmHg 86%
    06:00 +11°C° 0 mm 1 mps 697 mmHg 86%
    07:00 +13°C° 0 mm 1 mps 697 mmHg 78%
    08:00 +14°C° 0 mm 1 mps 698 mmHg 70%
    09:00 +16°C° 0 mm 1 mps 698 mmHg 62%
    10:00 +19°C° 0 mm 1 mps 698 mmHg 53%
    11:00 +22°C° 0 mm 1 mps 698 mmHg 44%
    12:00 +24°C° 0 mm 1 mps 699 mmHg 36%
    13:00 +25°C° 0 mm 2 mps 698 mmHg 35%
    14:00 +25°C° 0 mm 2 mps 698 mmHg 35%
    15:00 +26°C° 0 mm 2 mps 697 mmHg 35%
    16:00 +24°C° 0 mm 2 mps 697 mmHg 43%
    17:00 +21°C° 0 mm 1 mps 697 mmHg 51%
    18:00 +19°C° 0 mm 1 mps 697 mmHg 60%
    19:00 +19°C° 0 mm 1 mps 697 mmHg 61%
    20:00 +18°C° 0 mm 1 mps 697 mmHg 63%
    21:00 +16°C° 0 mm 1 mps 697 mmHg 65%
    22:00 +16°C° 0 mm 1 mps 697 mmHg 67%
    23:00 +15°C° 0 mm 1 mps 697 mmHg 69%

    30 May, Saturday

    Time Temperature Precipitation Wind Pressure Humidity
    00:00 +15°C° 0 mm 1 mps 697 mmHg 71%
    01:00 +15°C° 0 mm 1 mps 697 mmHg 73%
    02:00 +14°C° 0 mm 1 mps 696 mmHg 74%
    03:00 +14°C° 0 mm 1 mps 696 mmHg 76%
    04:00 +14°C° 0 mm 1 mps 696 mmHg 76%
    05:00 +13°C° 0 mm 1 mps 696 mmHg 76%
    06:00 +13°C° 0 mm 1 mps 696 mmHg 76%
    07:00 +15°C° 0 mm 1 mps 697 mmHg 69%
    08:00 +16°C° 0 mm 2 mps 697 mmHg 62%
    09:00 +18°C° 0 mm 2 mps 698 mmHg 55%
    10:00 +20°C° 0 mm 2 mps 698 mmHg 51%
    11:00 +22°C° 0 mm 3 mps 698 mmHg 47%
    12:00 +25°C° 0 mm 3 mps 698 mmHg 43%
    13:00 +25°C° 0 mm 3 mps 698 mmHg 44%
    14:00 +25°C° 0 mm 3 mps 697 mmHg 44%
    15:00 +25°C° 0 mm 4 mps 697 mmHg 45%
    16:00 +22°C° 0 mm 3 mps 696 mmHg 52%
    17:00 +21°C° 0 mm 2 mps 696 mmHg 59%
    18:00 +19°C° 0 mm 2 mps 696 mmHg 66%
    19:00 +19°C° 0 mm 2 mps 696 mmHg 69%
    20:00 +18°C° 0 mm 2 mps 696 mmHg 72%
    21:00 +18°C° 0 mm 1 mps 696 mmHg 74%
    22:00 +17°C° 0 mm 2 mps 696 mmHg 76%
    23:00 +16°C° 0 mm 2 mps 696 mmHg 77%

    31 May, Sunday

    Time Temperature Precipitation Wind Pressure Humidity
    00:00 +16°C° 0 mm 2 mps 696 mmHg 79%
    01:00 +16°C° 0 mm 2 mps 696 mmHg 80%
    02:00 +15°C° 0 mm 2 mps 695 mmHg 81%
    03:00 +15°C° 0 mm 2 mps 695 mmHg 83%
    04:00 +15°C° 0 mm 2 mps 695 mmHg 83%
    05:00 +15°C° 0 mm 2 mps 695 mmHg 84%
    06:00 +14°C° 0 mm 2 mps 695 mmHg 85%
    07:00 +16°C° 0 mm 2 mps 696 mmHg 79%
    08:00 +17°C° 0 mm 2 mps 697 mmHg 74%
    09:00 +18°C° 0 mm 2 mps 697 mmHg 68%
    10:00 +20°C° 0 mm 2 mps 698 mmHg 60%
    11:00 +22°C° 0 mm 3 mps 698 mmHg 51%
    12:00 +25°C° 0 mm 3 mps 698 mmHg 43%
    13:00 +25°C° 0 mm 3 mps 697 mmHg 42%
    14:00 +25°C° 0 mm 3 mps 697 mmHg 42%
    15:00 +25°C° 0 mm 3 mps 697 mmHg 41%
    16:00 +24°C° 0 mm 2 mps 697 mmHg 50%
    17:00 +21°C° 0 mm 2 mps 697 mmHg 59%
    18:00 +20°C° 0 mm 1 mps 697 mmHg 68%
    19:00 +19°C° 0 mm 1 mps 697 mmHg 73%
    20:00 +18°C° 0 mm 1 mps 697 mmHg 77%
    21:00 +18°C° 0 mm 1 mps 697 mmHg 82%
    22:00 +16°C° 0 mm 1 mps 697 mmHg 84%
    23:00 +16°C° 0 mm 1 mps 697 mmHg 85%

    1 June, Monday

    Time Temperature Precipitation Wind Pressure Humidity
    00:00 +16°C° 0 mm 2 mps 697 mmHg 87%
    01:00 +16°C° 0.1 mm 1 mps 697 mmHg 87%
    02:00 +16°C° 0.1 mm 1 mps 697 mmHg 87%
    03:00 +16°C° 0.1 mm 1 mps 697 mmHg 87%
    04:00 +16°C° 0 mm 1 mps 697 mmHg 87%
    05:00 +15°C° 0 mm 1 mps 697 mmHg 88%
    06:00 +15°C° 0 mm 1 mps 697 mmHg 89%
    07:00 +16°C° 0 mm 1 mps 697 mmHg 87%
    08:00 +18°C° 0 mm 1 mps 698 mmHg 84%
    09:00 +18°C° 0 mm 1 mps 698 mmHg 81%
    10:00 +20°C° 0 mm 1 mps 698 mmHg 72%
    11:00 +22°C° 0 mm 1 mps 698 mmHg 63%
    12:00 +24°C° 0 mm 1 mps 698 mmHg 53%
    13:00 +24°C° 0 mm 2 mps 698 mmHg 52%
    14:00 +25°C° 0 mm 2 mps 697 mmHg 51%
    15:00 +25°C° 0 mm 2 mps 696 mmHg 50%
    16:00 +23°C° 0 mm 2 mps 696 mmHg 59%
    17:00 +22°C° 0 mm 1 mps 696 mmHg 67%
    18:00 +20°C° 0 mm 1 mps 696 mmHg 76%
    19:00 +19°C° 0 mm 1 mps 696 mmHg 79%
    20:00 +19°C° 0 mm 1 mps 695 mmHg 83%
    21:00 +17°C° 0 mm 2 mps 695 mmHg 86%
    22:00 +17°C° 0 mm 2 mps 695 mmHg 85%
    23:00 +17°C° 0 mm 2 mps 695 mmHg 84%
    Show more